Tracking 18823 objects as of 20-October-2017
HD Live streaming from Space Station
objects crossing your sky now

ESSA 1 (OT-3)

Track ESSA 1 (OT-3) now!
10-day predictions
ESSA 1 (OT-3) is classified as:


NORAD ID: 1982
Int'l Code: 1966-008A
Perigee: 684.3 km
Apogee: 801.9 km
Inclination: 97.8 °
Period: 99.5 minutes
Semi major axis: 7114 km
RCS: 0.7257 m2 (medium)
Launch date: February 3, 1966
Source: United States (US)
Launch site: AIR FORCE EASTERN TEST RANGE (AFETR)
aabbcc
Your satellite tracking list
Your tracking list is empty





NASA's NSSDC Master Catalog

Two Line Element Set (TLE):
1 01982U 66008A   17292.63340642  .00000004  00000-0  11790-4 0  9995
2 01982  97.8054 136.0484 0082663 131.0314 229.8064 14.46836317721261
Source of the keplerian elements: AFSPC